Regional Weather Roundup
Issued by NWS State College, PA

Home | Current Version | Previous Version | Text Only | Print | Product List | Glossary On
Versions: 1 2 3 4 5 6 7 8 9 10 11 12 13 14 15 16 17 18 19 20 21 22 23 24 25 26 27 28 29 30 31 32 33 34 35 36 37 38 39 40 41 42 43 44 45 46 47 48 49 50
000
ASUS41 KCTP 120010
RWRCTP

REGIONAL WEATHER ROUNDUP
NATIONAL WEATHER SERVICE STATE COLLEGE PA
800 PM EDT FRI JUL 11 2014

Note: "fair" indicates few or no clouds below 12,000 feet with no
significant weather and/or obstructions to visibility.

* = STATION THAT DOES NOT REPORT PRECIPITATION /E.G. RAIN...SNOW...ETC/
    THUNDER OR FOG.

PAZ002>004-007>009-013>016-020>023-029>032-120100-
WESTERN PENNSYLVANIA

CITY           SKY/WX    TMP DP  RH WIND       PRES   REMARKS
ERIE           CLEAR     75  50  41 NE6       30.18R
MEADVILLE      CLEAR     74  57  55 N6        30.20R
FRANKLIN*      CLEAR     75  63  64 NW3       30.21R
NEW CASTLE       N/A     82  64  54 CALM      30.18R
BEAVER COUNTY  PTCLDY    81  59  47 CALM      30.18S
BUTLER*        CLEAR     77  64  65 CALM      30.20R
PITTSBURGH INT PTCLDY    81  59  47 W3        30.17S
PITTSBURGH     CLEAR     80  55  42 W7        30.17R
INDIANA*       MOCLDY    79  63  57 E3        30.23R
LATROBE        CLEAR     81  61  50 CALM      30.19R
WASHINGTON CO* CLEAR     79  63  57 CALM      30.19S
$$

PAZ004>006-010>012-017>019-024>028-033>037-041-042-045-046-049>053-120100-
CENTRAL PENNSYLVANIA

CITY           SKY/WX    TMP DP  RH WIND       PRES   REMARKS
BRADFORD       CLEAR     74  58  57 CALM      30.22R
DUBOIS         CLEAR     77  58  51 SE3       30.20S
CLEARFIELD     CLEAR     76  59  55 S3        30.21R
JOHNSTOWN      PTCLDY    72  60  66 SE5       30.24R
ALTOONA        CLEAR     76  64  66 SE3       30.22R
STATE COLLEGE  CLEAR     77  61  57 CALM      30.20S
WILLIAMSPORT   CLEAR     80  60  50 S3        30.16R
SELINSGROVE    CLEAR     76  68  76 CALM      30.17S
FT INDIANTOWN  CLEAR     76  67  74 N3        30.18S
CAPITAL CITY   CLEAR     80  60  50 S5        30.16S
HARRISBURG     PTCLDY    81  67  62 SW3       30.16R
YORK           CLEAR     79  65  62 SE3       30.17S
$$

PAZ038>040-043-044-047-048-054-055-060>062-067>071-120100-
EASTERN PENNSYLVANIA

CITY           SKY/WX    TMP DP  RH WIND       PRES   REMARKS
SCRANTON       CLEAR     77  60  55 CALM      30.20R
MOUNT POCONO   CLEAR     71  59  65 SE3       30.25R
ALLENTOWN      CLEAR     79  62  56 CALM      30.18S
QUAKERTOWN*    MOCLDY    81  64  57 NE3       30.20R
READING        CLEAR     82  62  50 N3        30.17R
LANCASTER      PTCLDY    79  62  56 S5        30.17S
COATESVILLE    CLEAR     77  63  61 CALM      30.19F
POTTSTOWN      PTCLDY    79  62  56 CALM      30.19R
BLUE BELL      MOCLDY    82  61  47 SE5       30.17R
DOYLESTOWN     CLOUDY    78  61  55 CALM      30.17S
WILLOW GROVE   NOT AVBL
NORTH PHILA    PTCLDY    81  59  47 S8        30.19R
PHILADELPHIA   MOCLDY    81  62  52 S8        30.18R
$$



USA.gov is the U.S. government's official web portal to all federal, state and local government web resources and services.